Location: *
(34.0486°S, 61.7880°E)
Time: 18:58:39
(UTC+00:00)

Cosmos 1745 Rocket - Pass Details

Date: 01 April 2020
Orbit: 952 x 999 km, 83.0° (Epoch: 27 May)

Event Time Altitude Azimuth Distance (km) Brightness Sun altitude
Rises 15:29:35 0° 355° (N) 3,627 7.0 -21.9°
Reaches altitude 10° 15:32:04 10° 354° (N) 2,684 6.3 -22.5°
Maximum altitude 15:38:12 87° 267° (W) 967 3.9 -23.7°
Drops below altitude 10° 15:44:25 10° 175° (S) 2,706 6.4 -25.0°
Sets 15:46:56 0° 174° (S) 3,659 7.1 -25.5°
